SCP
0 0 0 0 0 0 0 0 0 0 0 -0 -0 -0 -0 -0 -0 -0 -0 0 -0 0 -0 -0 -0 -0 0 0 0 0 -0 -0 0 0 0 0 0 0 0 -0 0 0 0 -0 -0
0 0 0 0 0 0 0 0 0 0 0 0 -0 -0 -0 -0 -0 -0 0 0 -0 0 0 0 0 0 -0 0 0 0 -0 0 0 0 0 0 0 0 0 0 0 0 -0 -0 -0
0 0 0 0 0 0 0 0 0 0 0 0 0 -0 -0 0 -0 -0 0 0 0 0 0 0 0 0 0 0 0 0 -0 -0 0 0 0 0 0 0 0 0 0 -0 -0 -0 -0
0 0 0 0 0 0 0 0 0 0 0 0 0 0 -0 0 0 0 0 0 -0 -0 -0 -0 0 0 0 -0 -0 0 0 0 0 0 0 0 0 0 0 0 0 -0 -0 -0 -0
0 0 0 0 0 0 0 0 0 0 0 0 0 0 0 0 0 0 0 0 0 -0 -0 -0 0 0 0 0 0 0 0 0 0 0 0 0 0 0 0 0 0 0 0 0 0
0 0 0 0 0 0 0 0 0 0 0 0 0 0 0 0 0 0 0 0 -0 -0 0 0 0 0 0 0 -0 -0 0 0 0 0 0 0 0 0 0 0 0 0 0 0 0
0 0 0 0 0 0 0 0 0 0 0 0 0 0 0 0 0 0 0 0 0 0 0 0 0 0 0 0 -0 -0 0 -0 0 0 0 0 0 0 -0 0 0 0 0 0 0
0 0 0 0 0 0 0 0 0 0 0 0 0 0 0 0 0 -0 0 0 0 0 0 0 0 0 -0 -0 -0 -0 0 0 -0 0 0 0 0 0 -0 -0 0 0 0 -0 -0
0 0 0 0 0 0 0 0 0 0 0 0 0 0 0 0 0 0 0 0 0 0 0 0 0 -0 -0 -0 -0 -0 -0 0 0 0 0 0 0 0 -1 -0 -0 -0 0 0 0
0 0 0 0 0 0 0 0 0 0 0 0 0 0 0 0 0 -0 0 0 0 0 0 0 -0 -0 -0 -0 -0 -0 0 -0 -0 0 0 0 0 -0 -1 -1 -0 -0 -0 0 -0
0 0 0 0 0 0 0 0 0 0 0 0 0 0 0 0 0 0 0 0 0 0 0 0 -0 -0 0 0 0 0 -0 -0 -0 -0 0 0 -0 -0 -0 -0 -0 -0 -0 -0 0
0 0 0 0 0 0 0 0 0 0 0 0 0 0 0 0 0 0 0 0 0 0 0 0 0 0 0 0 -0 -0 -0 0 0 -0 0 -0 0 0 -0 -0 -0 -0 -0 -0 -0
0 0 0 0 0 0 0 0 0 0 0 0 0 0 0 0 0 0 0 0 0 -0 0 -0 0 0 0 0 0 0 0 0 0 0 0 0 0 0 0 0 0 0 0 0 0
0 0 0 0 0 0 0 0 0 0 0 0 0 0 0 0 0 0 0 0 -0 -0 0 0 0 0 0 -0 0 0 0 0 0 0 -0 0 0 0 0 0 0 0 -0 -0 -0
0 0 0 0 0 0 0 0 0 0 0 0 0 0 0 0 0 0 0 0 -0 0 0 0 0 0 0 0 0 0 0 0 -0 0 0 0 0 0 0 0 0 -0 0 0 -0
0 0 0 0 0 0 0 0 0 0 0 0 0 0 0 0 0 0 0 0 0 -0 0 0 0 0 0 0 0 0 0 0 -0 0 0 0 0 0 0 0 0 0 0 0 -0
-0 0 0 0 0 0 0 0 0 0 0 0 0 0 0 -0 0 0 -0 -0 0 0 0 0 0 -0 0 0 -0 0 0 -0 0 0 0 0 0 0 0 -0 0 0 -0 -0 0
-0 0 0 0 0 0 0 0 0 0 0 0 0 0 -0 0 0 0 0 0 0 0 0 0 0 -0 0 0 -0 0 0 0 0 0 0 0 0 0 0 0 0 0 0 0 -0
0 0 0 0 0 0 0 -0 0 0 0 0 0 0 -0 -0 0 0 0 0 0 0 0 -0 0 0 -0 -0 -0 -0 0 0 0 0 0 0 0 0 0 0 0 0 0 0 0
0 0 0 0 0 0 0 0 0 0 0 0 -0 -0 -0 -0 -0 -0 -0 0 0 0 0 0 0 0 0 0 -0 -0 0 0 0 0 0 0 0 0 0 0 -0 0 0 0 0
0 0 0 0 0 0 -0 0 0 0 0 0 -0 -0 -0 -0 -0 -0 -0 0 0 -0 0 -0 0 0 0 0 0 -0 0 0 0 0 0 0 0 0 0 0 0 -0 -0 0 0
0 0 0 0 0 0 -0 -0 0 0 0 0 -0 -0 -0 -0 0 0 -0 0 0 0 0 0 0 0 0 0 0 0 0 0 0 0 0 0 0 0 0 0 0 0 -0 0 0
0 0 0 0 0 0 -0 -0 0 0 0 0 0 0 0 0 0 0 0 -0 -0 0 0 0 0 0 0 0 0 0 0 0 0 0 0 0 0 0 0 0 0 0 0 0 0
0 0 0 0 0 0 -0 -0 0 0 0 0 0 0 0 0 0 0 0 0 0 0 0 0 0 0 0 0 0 0 0 0 0 0 0 0 0 0 0 0 1 1 0 1 0
0 0 0 0 0 0 0 0 0 0 0 0 0 0 0 0 0 0 0 0 0 0 0 0 0 0 0 0 0 0 0 -0 0 -0 0 0 0 0 0 0 0 1 1 1 1
0 0 0 0 0 0 0 -0 0 0 0 0 0 0 0 0 0 0 0 0 0 0 0 0 0 0 0 0 0 0 0 0 0 0 0 0 0 0 0 0 0 0 0 0 0
0 0 0 0 0 0 0 0 0 0 0 0 0 0 0 0 0 0 0 0 0 0 0 0 0 0 0 0 0 0 0 0 0 0 0 0 0 0 0 0 0 0 0 0 0
Wind_Speed_500mb
22 22 23 22 21 21 20 18 19 18 19 16 17 19 21 24 27 36 51 25 11 13 20 22 24 18 25 29 36 19 6 4 8 10 6 21 8 13 11 29 9 12 31 53 55
24 23 22 22 22 21 20 19 18 18 17 17 16 17 20 24 30 44 32 27 22 16 26 33 35 33 11 15 26 13 8 16 14 12 10 19 17 24 10 22 10 33 43 66 58
26 24 22 21 21 20 20 18 18 16 16 17 15 15 18 20 29 34 23 19 13 19 28 32 32 24 7 13 19 23 12 12 17 24 22 21 19 12 32 3 20 55 68 66 62
26 25 23 19 20 19 20 19 18 16 15 15 15 14 17 15 8 3 15 15 16 19 21 24 22 31 9 5 17 13 22 28 24 21 24 15 29 15 19 13 38 47 64 72 67
26 26 23 19 17 18 19 18 17 15 14 14 15 14 14 14 24 5 16 13 10 17 22 21 28 16 8 18 25 12 11 35 39 36 16 27 13 11 18 25 34 49 67 75 75
28 26 23 18 15 17 18 18 17 15 14 13 15 13 13 12 17 13 12 12 12 16 20 22 19 34 21 12 3 16 14 19 34 30 18 17 5 13 17 47 48 58 71 73 73
29 27 24 19 15 16 17 17 16 14 13 12 14 15 21 40 13 19 15 13 7 12 21 22 34 31 38 15 16 7 11 3 17 29 14 18 6 9 49 56 61 67 70 72 71
29 27 24 19 15 14 16 15 14 13 13 13 13 16 22 22 36 29 13 9 8 13 22 33 34 29 9 17 16 10 9 8 10 25 12 28 16 10 61 64 56 56 69 73 73
29 27 24 19 14 13 14 14 13 13 13 12 11 12 21 16 30 27 16 12 7 15 20 26 24 7 3 7 11 13 5 5 6 25 13 10 8 14 66 58 55 58 58 65 69
29 27 23 17 12 12 13 12 10 12 12 11 14 8 23 8 23 31 18 17 9 14 19 11 10 5 9 8 3 9 10 7 13 13 16 15 13 20 58 57 57 58 65 69 69
29 27 22 15 11 13 13 8 6 7 22 21 13 11 4 6 12 32 24 21 14 7 6 12 8 13 14 10 5 9 10 19 8 11 12 15 6 21 47 40 38 48 57 66 73
31 27 21 13 12 15 17 12 7 4 16 35 50 44 39 30 11 25 29 13 6 4 5 13 12 16 10 12 6 11 14 5 7 3 7 3 13 6 29 41 53 55 57 65 60
31 26 18 11 14 19 25 21 10 8 4 14 28 43 36 7 10 10 26 24 6 5 6 10 17 14 8 23 9 7 5 4 7 4 11 6 9 8 8 6 43 52 55 47 57
32 25 15 11 11 18 5 15 7 14 8 11 11 11 21 14 10 15 25 15 4 13 10 10 14 12 16 15 13 2 7 1 6 8 4 6 7 9 11 12 13 30 55 57 60
33 25 16 18 8 17 12 5 4 8 3 6 11 8 15 16 2 16 20 16 11 7 12 13 11 8 11 15 10 13 5 5 1 7 5 2 9 8 1 12 9 5 28 46 55
34 26 18 21 25 18 5 2 17 10 9 5 16 14 10 6 5 1 16 15 2 8 0 15 23 8 15 8 5 4 10 12 10 6 7 13 6 12 3 11 5 10 19 34 29
34 26 20 23 16 13 2 21 9 6 10 7 9 9 8 8 5 8 5 8 9 8 6 13 12 8 10 3 7 12 13 7 11 10 7 9 8 11 9 9 7 4 16 20 30
28 17 18 24 24 6 9 9 4 7 12 3 12 8 12 12 11 6 14 13 1 10 4 1 15 6 5 16 15 6 14 11 6 4 7 9 3 10 9 6 8 18 19 18 4
14 8 16 26 25 4 5 5 11 11 7 5 10 10 5 8 6 5 12 15 16 16 15 9 11 10 12 5 16 4 4 8 14 6 6 8 9 4 7 9 21 31 28 26 15
9 6 13 28 20 10 8 9 9 8 12 7 13 8 15 8 11 10 12 11 12 22 14 5 6 6 10 6 10 8 11 6 6 7 6 8 10 9 14 12 12 23 38 36 16
4 4 24 26 21 6 7 13 11 23 4 4 11 12 14 13 18 14 18 10 21 8 18 11 7 16 7 10 5 9 6 12 12 7 9 4 12 11 15 15 16 29 55 38 32
3 4 31 41 8 4 5 11 8 16 35 24 11 15 18 18 15 15 21 15 21 27 19 13 11 5 5 6 8 8 7 8 10 3 4 6 9 12 15 15 25 28 24 18 30
16 7 31 27 6 5 9 10 13 20 14 6 14 18 14 18 7 14 13 6 18 21 22 15 1 5 15 13 9 13 6 10 10 7 4 9 9 10 12 4 31 16 18 31 41
5 4 10 19 5 9 3 12 10 21 19 15 9 5 7 6 4 14 14 3 10 10 25 20 8 12 12 9 7 9 1 6 9 7 6 8 5 11 9 15 23 27 33 33 37
2 2 3 6 12 7 7 10 21 12 11 9 3 6 4 10 6 10 6 4 13 4 11 11 7 7 4 2 4 10 6 6 9 10 10 8 11 4 5 11 14 31 28 28 29
6 8 9 4 10 7 11 8 11 9 12 16 1 1 11 9 13 13 17 6 7 13 9 8 3 7 12 12 13 9 22 10 9 10 16 16 12 7 28 46 50 31 21 18 5
8 4 5 6 7 6 10 10 8 6 19 22 16 14 23 9 13 27 24 19 17 13 7 8 11 7 1 9 7 12 14 7 10 10 11 9 6 13 21 34 37 35 34 27 22
Wind_Direction_500mb
318 307 297 289 283 278 275 274 277 276 277 275 275 279 280 284 279 270 257 239 230 265 302 318 324 323 293 242 208 202 49 257 250 177 178 168 133 140 173 144 141 177 160 163 160
324 315 302 290 280 274 271 270 272 275 276 276 273 273 284 291 290 258 215 246 256 290 306 321 331 328 203 217 180 153 147 222 219 158 175 162 159 138 133 155 64 98 136 156 166
328 321 309 292 277 270 267 266 268 271 273 274 273 266 279 298 309 250 255 244 245 291 301 314 330 332 321 184 190 170 202 213 208 183 156 136 129 128 124 219 175 145 151 168 173
331 325 315 296 276 264 263 262 264 267 270 272 269 259 274 289 256 232 220 223 280 293 295 319 313 326 305 336 218 143 222 166 195 178 160 155 138 122 177 191 169 168 166 171 178
333 328 319 300 273 259 253 255 257 261 262 264 265 259 272 268 252 181 181 232 281 295 302 312 314 329 324 315 313 170 174 179 183 189 151 151 155 186 192 167 168 173 172 178 186
334 330 322 305 272 253 247 248 251 254 255 255 259 257 260 266 217 237 247 282 272 285 304 295 293 316 286 258 101 310 196 167 173 184 169 139 172 145 169 170 167 179 182 185 191
332 330 322 306 274 248 241 242 246 250 252 250 254 258 254 233 227 235 240 275 264 263 284 291 308 311 311 298 339 282 153 0 148 183 175 142 308 227 166 173 164 184 191 195 199
332 329 323 306 276 246 237 236 241 246 247 245 251 264 253 248 241 218 238 265 280 254 278 307 314 312 222 289 347 111 66 147 245 160 197 155 256 212 170 166 174 183 200 203 207
333 328 322 305 272 240 230 231 234 238 240 241 247 248 261 237 227 217 243 282 257 225 287 306 326 292 348 49 9 5 248 202 259 179 149 187 243 179 175 174 181 191 199 207 214
333 327 321 304 265 229 219 222 226 239 236 232 236 275 258 214 216 231 244 271 294 283 321 355 352 14 40 69 245 280 325 266 192 216 169 193 238 173 179 180 189 192 203 210 215
333 327 321 298 250 217 206 188 202 224 222 213 211 215 251 69 253 220 240 245 262 294 28 360 18 265 272 216 215 253 223 232 231 202 144 219 83 190 188 194 197 200 207 212 218
332 327 320 289 236 212 203 205 167 71 292 245 248 257 261 290 295 227 227 219 138 189 54 4 274 277 247 265 291 269 250 327 29 107 115 158 135 134 192 205 203 202 210 212 218
331 327 317 271 227 215 218 216 256 344 317 276 234 242 244 203 248 217 196 202 140 178 146 179 252 306 322 305 311 232 134 126 153 45 26 60 346 35 33 215 211 218 221 217 215
330 325 307 250 233 221 227 118 37 255 49 268 208 248 214 237 270 218 199 169 152 201 185 231 300 271 285 250 190 61 213 329 103 67 227 82 265 53 340 0 23 219 208 208 214
327 318 290 226 236 145 130 55 93 150 46 206 177 165 172 171 224 216 209 190 180 176 100 246 318 342 312 257 163 218 81 60 23 113 103 342 86 322 349 356 333 347 200 206 215
322 308 275 232 228 153 321 356 137 46 257 206 156 170 126 187 233 240 199 212 164 159 353 248 268 231 222 294 180 75 82 49 51 82 36 329 84 321 293 221 274 334 187 196 197
316 297 256 217 206 162 356 145 49 149 333 193 167 142 153 178 227 173 158 120 167 97 323 318 261 256 187 203 25 73 55 359 360 16 217 315 63 225 291 283 177 219 294 209 221
313 283 236 198 164 65 126 60 205 245 242 276 123 102 156 165 245 194 141 187 268 94 66 235 328 191 194 194 179 102 144 146 218 219 260 333 145 230 208 109 129 113 112 85 230
319 265 227 186 192 223 135 92 220 215 270 2 67 92 253 240 182 150 161 194 193 161 176 173 267 311 242 139 128 164 148 187 101 36 71 305 314 140 176 203 118 101 88 61 51
320 257 202 176 175 145 83 238 246 234 339 28 171 165 184 237 155 137 171 204 218 187 147 191 313 285 330 85 40 109 158 57 22 145 191 301 287 236 192 191 242 113 115 133 144
324 282 167 174 157 152 171 235 280 272 334 325 219 196 213 183 177 181 206 273 199 123 139 155 99 296 11 19 253 27 24 52 112 102 150 171 264 231 178 186 172 151 153 174 196
6 65 167 167 94 38 174 212 290 274 289 240 221 203 192 178 176 191 209 228 197 145 157 201 146 200 177 9 18 112 111 113 110 209 112 147 272 310 182 189 162 179 217 183 198
344 21 166 177 152 250 268 269 260 278 261 231 231 194 187 190 160 168 198 267 207 160 169 182 39 52 353 1 1 57 4 101 106 72 196 133 266 346 107 226 203 191 174 183 206
351 69 140 233 251 143 183 268 253 299 272 227 256 194 112 136 276 160 178 335 122 109 144 125 94 145 173 203 163 103 343 89 108 107 177 225 326 333 34 85 110 136 149 165 196
5 18 110 222 281 242 185 293 289 297 271 285 240 204 163 108 69 107 113 42 37 70 59 89 105 97 144 215 121 69 74 212 122 171 159 184 112 314 27 85 105 131 139 148 170
35 15 351 257 284 211 191 247 234 272 237 321 343 217 63 118 161 150 139 139 155 25 80 22 146 58 17 354 60 62 21 93 26 100 77 109 86 34 66 74 61 66 82 66 17
15 336 294 304 323 100 197 260 265 296 267 230 250 68 66 22 101 122 99 110 142 121 92 88 125 90 229 346 36 14 336 49 46 15 130 127 93 115 84 85 83 80 78 72 52
Wind_Speed_850mb
22 22 23 22 21 21 20 18 19 18 19 16 17 19 21 24 27 36 51 25 11 13 20 22 24 18 25 29 36 19 6 4 8 10 6 21 8 13 11 29 9 12 31 53 55
24 23 22 22 22 21 20 19 18 18 17 17 16 17 20 24 30 44 32 27 22 16 26 33 35 33 11 15 26 13 8 16 14 12 10 19 17 24 10 22 10 33 43 66 58
26 24 22 21 21 20 20 18 18 16 16 17 15 15 18 20 29 34 23 19 13 19 28 32 32 24 7 13 19 23 12 12 17 24 22 21 19 12 32 3 20 55 68 66 62
26 25 23 19 20 19 20 19 18 16 15 15 15 14 17 15 8 3 15 15 16 19 21 24 22 31 9 5 17 13 22 28 24 21 24 15 29 15 19 13 38 47 64 72 67
26 26 23 19 17 18 19 18 17 15 14 14 15 14 14 14 24 5 16 13 10 17 22 21 28 16 8 18 25 12 11 35 39 36 16 27 13 11 18 25 34 49 67 75 75
28 26 23 18 15 17 18 18 17 15 14 13 15 13 13 12 17 13 12 12 12 16 20 22 19 34 21 12 3 16 14 19 34 30 18 17 5 13 17 47 48 58 71 73 73
29 27 24 19 15 16 17 17 16 14 13 12 14 15 21 40 13 19 15 13 7 12 21 22 34 31 38 15 16 7 11 3 17 29 14 18 6 9 49 56 61 67 70 72 71
29 27 24 19 15 14 16 15 14 13 13 13 13 16 22 22 36 29 13 9 8 13 22 33 34 29 9 17 16 10 9 8 10 25 12 28 16 10 61 64 56 56 69 73 73
29 27 24 19 14 13 14 14 13 13 13 12 11 12 21 16 30 27 16 12 7 15 20 26 24 7 3 7 11 13 5 5 6 25 13 10 8 14 66 58 55 58 58 65 69
29 27 23 17 12 12 13 12 10 12 12 11 14 8 23 8 23 31 18 17 9 14 19 11 10 5 9 8 3 9 10 7 13 13 16 15 13 20 58 57 57 58 65 69 69
29 27 22 15 11 13 13 8 6 7 22 21 13 11 4 6 12 32 24 21 14 7 6 12 8 13 14 10 5 9 10 19 8 11 12 15 6 21 47 40 38 48 57 66 73
31 27 21 13 12 15 17 12 7 4 16 35 50 44 39 30 11 25 29 13 6 4 5 13 12 16 10 12 6 11 14 5 7 3 7 3 13 6 29 41 53 55 57 65 60
31 26 18 11 14 19 25 21 10 8 4 14 28 43 36 7 10 10 26 24 6 5 6 10 17 14 8 23 9 7 5 4 7 4 11 6 9 8 8 6 43 52 55 47 57
32 25 15 11 11 18 5 15 7 14 8 11 11 11 21 14 10 15 25 15 4 13 10 10 14 12 16 15 13 2 7 1 6 8 4 6 7 9 11 12 13 30 55 57 60
33 25 16 18 8 17 12 5 4 8 3 6 11 8 15 16 2 16 20 16 11 7 12 13 11 8 11 15 10 13 5 5 1 7 5 2 9 8 1 12 9 5 28 46 55
34 26 18 21 25 18 5 2 17 10 9 5 16 14 10 6 5 1 16 15 2 8 0 15 23 8 15 8 5 4 10 12 10 6 7 13 6 12 3 11 5 10 19 34 29
34 26 20 23 16 13 2 21 9 6 10 7 9 9 8 8 5 8 5 8 9 8 6 13 12 8 10 3 7 12 13 7 11 10 7 9 8 11 9 9 7 4 16 20 30
28 17 18 24 24 6 9 9 4 7 12 3 12 8 12 12 11 6 14 13 1 10 4 1 15 6 5 16 15 6 14 11 6 4 7 9 3 10 9 6 8 18 19 18 4
14 8 16 26 25 4 5 5 11 11 7 5 10 10 5 8 6 5 12 15 16 16 15 9 11 10 12 5 16 4 4 8 14 6 6 8 9 4 7 9 21 31 28 26 15
9 6 13 28 20 10 8 9 9 8 12 7 13 8 15 8 11 10 12 11 12 22 14 5 6 6 10 6 10 8 11 6 6 7 6 8 10 9 14 12 12 23 38 36 16
4 4 24 26 21 6 7 13 11 23 4 4 11 12 14 13 18 14 18 10 21 8 18 11 7 16 7 10 5 9 6 12 12 7 9 4 12 11 15 15 16 29 55 38 32
3 4 31 41 8 4 5 11 8 16 35 24 11 15 18 18 15 15 21 15 21 27 19 13 11 5 5 6 8 8 7 8 10 3 4 6 9 12 15 15 25 28 24 18 30
16 7 31 27 6 5 9 10 13 20 14 6 14 18 14 18 7 14 13 6 18 21 22 15 1 5 15 13 9 13 6 10 10 7 4 9 9 10 12 4 31 16 18 31 41
5 4 10 19 5 9 3 12 10 21 19 15 9 5 7 6 4 14 14 3 10 10 25 20 8 12 12 9 7 9 1 6 9 7 6 8 5 11 9 15 23 27 33 33 37
2 2 3 6 12 7 7 10 21 12 11 9 3 6 4 10 6 10 6 4 13 4 11 11 7 7 4 2 4 10 6 6 9 10 10 8 11 4 5 11 14 31 28 28 29
6 8 9 4 10 7 11 8 11 9 12 16 1 1 11 9 13 13 17 6 7 13 9 8 3 7 12 12 13 9 22 10 9 10 16 16 12 7 28 46 50 31 21 18 5
8 4 5 6 7 6 10 10 8 6 19 22 16 14 23 9 13 27 24 19 17 13 7 8 11 7 1 9 7 12 14 7 10 10 11 9 6 13 21 34 37 35 34 27 22
Wind_Direction_850mb
318 307 297 289 283 278 275 274 277 276 277 275 275 279 280 284 279 270 257 239 230 265 302 318 324 323 293 242 208 202 49 257 250 177 178 168 133 140 173 144 141 177 160 163 160
324 315 302 290 280 274 271 270 272 275 276 276 273 273 284 291 290 258 215 246 256 290 306 321 331 328 203 217 180 153 147 222 219 158 175 162 159 138 133 155 64 98 136 156 166
328 321 309 292 277 270 267 266 268 271 273 274 273 266 279 298 309 250 255 244 245 291 301 314 330 332 321 184 190 170 202 213 208 183 156 136 129 128 124 219 175 145 151 168 173
331 325 315 296 276 264 263 262 264 267 270 272 269 259 274 289 256 232 220 223 280 293 295 319 313 326 305 336 218 143 222 166 195 178 160 155 138 122 177 191 169 168 166 171 178
333 328 319 300 273 259 253 255 257 261 262 264 265 259 272 268 252 181 181 232 281 295 302 312 314 329 324 315 313 170 174 179 183 189 151 151 155 186 192 167 168 173 172 178 186
334 330 322 305 272 253 247 248 251 254 255 255 259 257 260 266 217 237 247 282 272 285 304 295 293 316 286 258 101 310 196 167 173 184 169 139 172 145 169 170 167 179 182 185 191
332 330 322 306 274 248 241 242 246 250 252 250 254 258 254 233 227 235 240 275 264 263 284 291 308 311 311 298 339 282 153 0 148 183 175 142 308 227 166 173 164 184 191 195 199
332 329 323 306 276 246 237 236 241 246 247 245 251 264 253 248 241 218 238 265 280 254 278 307 314 312 222 289 347 111 66 147 245 160 197 155 256 212 170 166 174 183 200 203 207
333 328 322 305 272 240 230 231 234 238 240 241 247 248 261 237 227 217 243 282 257 225 287 306 326 292 348 49 9 5 248 202 259 179 149 187 243 179 175 174 181 191 199 207 214
333 327 321 304 265 229 219 222 226 239 236 232 236 275 258 214 216 231 244 271 294 283 321 355 352 14 40 69 245 280 325 266 192 216 169 193 238 173 179 180 189 192 203 210 215
333 327 321 298 250 217 206 188 202 224 222 213 211 215 251 69 253 220 240 245 262 294 28 360 18 265 272 216 215 253 223 232 231 202 144 219 83 190 188 194 197 200 207 212 218
332 327 320 289 236 212 203 205 167 71 292 245 248 257 261 290 295 227 227 219 138 189 54 4 274 277 247 265 291 269 250 327 29 107 115 158 135 134 192 205 203 202 210 212 218
331 327 317 271 227 215 218 216 256 344 317 276 234 242 244 203 248 217 196 202 140 178 146 179 252 306 322 305 311 232 134 126 153 45 26 60 346 35 33 215 211 218 221 217 215
330 325 307 250 233 221 227 118 37 255 49 268 208 248 214 237 270 218 199 169 152 201 185 231 300 271 285 250 190 61 213 329 103 67 227 82 265 53 340 0 23 219 208 208 214
327 318 290 226 236 145 130 55 93 150 46 206 177 165 172 171 224 216 209 190 180 176 100 246 318 342 312 257 163 218 81 60 23 113 103 342 86 322 349 356 333 347 200 206 215
322 308 275 232 228 153 321 356 137 46 257 206 156 170 126 187 233 240 199 212 164 159 353 248 268 231 222 294 180 75 82 49 51 82 36 329 84 321 293 221 274 334 187 196 197
316 297 256 217 206 162 356 145 49 149 333 193 167 142 153 178 227 173 158 120 167 97 323 318 261 256 187 203 25 73 55 359 360 16 217 315 63 225 291 283 177 219 294 209 221
313 283 236 198 164 65 126 60 205 245 242 276 123 102 156 165 245 194 141 187 268 94 66 235 328 191 194 194 179 102 144 146 218 219 260 333 145 230 208 109 129 113 112 85 230
319 265 227 186 192 223 135 92 220 215 270 2 67 92 253 240 182 150 161 194 193 161 176 173 267 311 242 139 128 164 148 187 101 36 71 305 314 140 176 203 118 101 88 61 51
320 257 202 176 175 145 83 238 246 234 339 28 171 165 184 237 155 137 171 204 218 187 147 191 313 285 330 85 40 109 158 57 22 145 191 301 287 236 192 191 242 113 115 133 144
324 282 167 174 157 152 171 235 280 272 334 325 219 196 213 183 177 181 206 273 199 123 139 155 99 296 11 19 253 27 24 52 112 102 150 171 264 231 178 186 172 151 153 174 196
6 65 167 167 94 38 174 212 290 274 289 240 221 203 192 178 176 191 209 228 197 145 157 201 146 200 177 9 18 112 111 113 110 209 112 147 272 310 182 189 162 179 217 183 198
344 21 166 177 152 250 268 269 260 278 261 231 231 194 187 190 160 168 198 267 207 160 169 182 39 52 353 1 1 57 4 101 106 72 196 133 266 346 107 226 203 191 174 183 206
351 69 140 233 251 143 183 268 253 299 272 227 256 194 112 136 276 160 178 335 122 109 144 125 94 145 173 203 163 103 343 89 108 107 177 225 326 333 34 85 110 136 149 165 196
5 18 110 222 281 242 185 293 289 297 271 285 240 204 163 108 69 107 113 42 37 70 59 89 105 97 144 215 121 69 74 212 122 171 159 184 112 314 27 85 105 131 139 148 170
35 15 351 257 284 211 191 247 234 272 237 321 343 217 63 118 161 150 139 139 155 25 80 22 146 58 17 354 60 62 21 93 26 100 77 109 86 34 66 74 61 66 82 66 17
15 336 294 304 323 100 197 260 265 296 267 230 250 68 66 22 101 122 99 110 142 121 92 88 125 90 229 346 36 14 336 49 46 15 130 127 93 115 84 85 83 80 78 72 52